Location: Cruquius
(52.3348°N, 4.6319°E)
Time: 16:43:10
(UTC+00:00)

Nimbus 7 Rocket - Pass Details

Date: 12 May 2021
Orbit: 922 x 965 km, 99.4° (Epoch: 21 June)

Event Time Altitude Azimuth Distance (km) Brightness Sun altitude
Rises 23:31:12 0° 16° (NNE) 3,583 8.8 -19.3°
Reaches altitude 10° 23:33:38 10° 18° (NNE) 2,638 7.8 -19.3°
Maximum altitude 23:39:33 84° 107° (ESE) 942 4.3 -19.3°
Enters shadow 23:42:22 33° 193° (SSW) 1,512 5.0 -19.3°
